Location: Newark
(5.8900°S, 42.6378°W)
Time: 22:21:51
(UTC+00:00)

Vanguard 1 Rocket - Pass Details

Date: 19 October 2019
Orbit: 651 x 4225 km, 34.3° (Epoch: 16 November)

Event Time Altitude Azimuth Distance (km) Brightness Sun altitude
Rises 14:05:32 0° 305° (NW) 5,774 11.4 81.5°
Reaches altitude 10° 14:13:11 10° 332° (NNW) 5,632 11.5 83.1°
Maximum altitude 14:19:51 13° 354° (N) 6,022 11.7 84.3°
Drops below altitude 10° 14:27:51 10° 16° (NNE) 6,844 12.0 85.5°
Sets 14:40:43 0° 41° (NE) 8,401 12.3 85.7°
